Content
SEND FEEDBACK

Daily
Averages
Monthly
Summary
United States of America

NEDERLAND, COLORADO


Home > North America > United States > Colorado
Elevation: 8311 feet     Latitude: 39 59N     Longitude: 105 30W

WEATHER
 
SELECT A DAY
Number of Records: 152,034;   Date Range: 1/1/95 - 9/29/14
 
SHARE

PRINT THIS DATA

[ ← Previous Day ]
WEATHER ALMANAC - JULY 22, 2014
[ Next Day → ]
[ °C ]   °F
Weather ElementAverageHighLow
Temperature75.6 °F93.2 °F (4:47 pm)66.2 °F (5:35 am)
Dewpoint43.8 °F51.8 °F (8:53 pm)37.4 °F (2:35 am)
Humidity33 %47 % (11:35 pm)20 % (4:47 pm)
Barometer30.28 in30.38 in (10:48 am)30.22 in (1:55 am)
Wind Speed5.4 mph12.7 mph (1:15 am)
Weather ElementAverage
Visibility19.8 mi
Wind DirectionSSE (171.6 °)

Weather ElementTotal
Precipitation---
Cooling Degree Days14.7 (Base 65)
Growing Degree Days29.7 (Base 50)
Averaged from 32 records on July 22, 2014
WEATHER CONDITIONS BREAKOUT
WIND DIRECTION BREAKOUT
WEATHER BY HOUR - JULY 22, 2014
[ °C ]   °F
Local TimeTemperatureDewpointHumidityBarometerVisibilityWind DirectionWind SpeedGust SpeedPrecipitationEventsConditions
12:35 AM75.2 °F41.0 °F29 %30.23 in10.0 miNNW (330°)6.9 mphClear
12:54 AM73.4 °F41.0 °F31 %30.23 in10.0 miNNW (330°)6.9 mphClear
1:15 AM71.6 °F39.2 °F31 %30.23 in10.0 miWNW (300°)12.7 mphClear
1:35 AM71.6 °F41.0 °F33 %30.23 in10.0 miNW (310°)11.5 mphClear
1:55 AM71.6 °F41.0 °F33 %30.22 in10.0 miWNW (290°)9.2 mphClear
2:15 AM71.6 °F39.2 °F31 %30.22 in10.0 miWNW (290°)9.2 mphClear
2:35 AM71.6 °F37.4 °F29 %30.22 in10.0 miWNW (300°)10.4 mphClear
2:55 AM71.6 °F39.2 °F31 %30.22 in10.0 miWest (280°)3.5 mphClear
3:15 AM71.6 °F37.4 °F29 %30.22 in10.0 miCalmClear
3:35 AM71.6 °F37.4 °F29 %30.22 in10.0 miWSW (240°)3.5 mphClear
3:54 AM68.0 °F41.0 °F37 %30.22 in10.0 miSSW (210°)3.5 mphClear
4:15 AM69.8 °F39.2 °F33 %30.23 in10.0 miSW (230°)3.5 mphClear
4:35 AM68.0 °F39.2 °F35 %30.24 in10.0 miCalmClear
4:55 AM71.6 °F39.2 °F31 %30.24 in10.0 miCalmClear
5:15 AM68.0 °F39.2 °F35 %30.25 in10.0 miCalmClear
5:35 AM66.2 °F42.8 °F43 %30.27 in10.0 miNNE (20°)4.6 mphClear
5:47 AM66.2 °F42.8 °F43 %30.28 in70.0 miNorth (360°)6.9 mphScattered Clouds
5:55 AM66.2 °F41.0 °F40 %30.29 in10.0 miNNW (330°)6.9 mphClear
6:47 AM68.0 °F44.6 °F43 %30.31 in70.0 miWNW (300°)10.4 mphScattered Clouds
10:48 AM78.8 °F48.2 °F34 %30.38 in25.0 miEast (80°)6.9 mphPartly Cloudy
11:47 AM82.4 °F50.0 °F32 %30.37 in30.0 miNE (40°)9.2 mphPartly Cloudy
12:55 PM84.2 °F48.2 °F29 %30.36 in30.0 miCalmPartly Cloudy
2:46 PM86.0 °F50.0 °F29 %30.34 in30.0 miSE (130°)3.5 mphScattered Clouds
3:55 PM91.4 °F46.4 °F21 %30.32 in30.0 miCalmScattered Clouds
4:47 PM93.2 °F46.4 °F20 %30.31 in30.0 miVariable4.6 mphScattered Clouds
5:53 PM93.2 °F46.4 °F20 %30.31 in30.0 miSW (220°)9.2 mphScattered Clouds
7:45 PM89.6 °F48.2 °F24 %30.31 in40.0 miCalmScattered Clouds
8:53 PM78.8 °F51.8 °F39 %30.32 in20.0 miWest (260°)9.2 mphScattered Clouds
9:55 PM80.6 °F50.0 °F34 %30.33 in30.0 miNW (310°)10.4 mphPartly Cloudy
11:15 PM78.8 °F50.0 °F36 %30.34 in10.0 miNNW (330°)10.4 mphClear
11:35 PM73.4 °F51.8 °F47 %30.34 in10.0 miCalmClear
11:55 PM75.2 °F51.8 °F44 %30.34 in10.0 miCalmClear
Hourly data recorded from KBJC, located miles away from Nederland, Colorado







STORIES FROM OUR PARTNERS